Regional Weather Roundup
Issued by NWS

Home | Current Version | Previous Version | Graphics & Text | Print | Product List | Glossary On
Versions: 1 2 3 4 5 6 7 8 9 10 11 12 13 14 15 16 17 18 19 20 21 22 23 24 25 26 27 28 29 30 31 32 33 34 35 36 37 38 39 40 41 42 43 44 45 46 47 48 49 50
846
ASUS45 KBOI 240610
RWRID

IDAHO REGIONAL WEATHER ROUNDUP
NATIONAL WEATHER SERVICE BOISE ID
1200 AM MDT TUE MAY 24 2016

NOTE: "FAIR" INDICATES FEW OR NO CLOUDS BELOW 12000 FEET
WITH NO SIGNIFICANT WEATHER AND/OR OBSTRUCTIONS TO VISIBILITY

IDZ012-014-240700-
SOUTHWEST IDAHO


CITY           SKY/WX    TMP DP  RH WIND       PRES   REMARKS
BOISE          PTCLDY    58  35  42 CALM      29.82S
CALDWELL       PTCLDY    53  41  63 CALM      29.83R
MOUNTAIN HOME  PTCLDY    57  37  46 N7        29.82S
$$

IDZ016-017-240700-
SOUTHCENTRAL IDAHO


CITY           SKY/WX    TMP DP  RH WIND       PRES   REMARKS
BURLEY         MOCLDY    50  42  74 S3        29.85S
JEROME         PTCLDY    49  40  71 SE5       29.86S
TWIN FALLS     PTCLDY    47  39  74 S10       29.85S
$$

IDZ019>023-240700-
SOUTHEAST IDAHO


CITY           SKY/WX    TMP DP  RH WIND       PRES   REMARKS
IDAHO FALLS    CLEAR     45  35  68 S7        29.88S
POCATELLO      CLEAR     44  38  79 S7        29.88S
REXBURG        CLEAR     46  31  55 S7        29.88R
$$

IDZ006-010-011-018-031-032-240700-
CENTRAL IDAHO MOUNTAINS


CITY           SKY/WX    TMP DP  RH WIND       PRES   REMARKS
MCCALL         MOCLDY    43  35  73 N6        29.88S
HAILEY         CLEAR     45  36  70 CALM      29.92R
STANLEY          N/A     32  26  78 S3        29.93S
SALMON         CLOUDY    46  37  71 S6        29.87R
CHALLIS        PTCLDY    42  31  64 CALM      29.88S
$$

IDZ002-004-006-007-026-240700-
NORTHERN IDAHO


CITY           SKY/WX    TMP DP  RH WIND       PRES   REMARKS
LEWISTON       CLOUDY    53  44  71 E8        29.86S
LOWELL           N/A     49  47  93 CALM      29.92R
COEUR D`ALENE  CLOUDY    50  45  81 MISG      29.85S
MULLAN PASS    LGT RAIN  34  34 100 SW6       29.88S VSB 1/4 WCI  29
$$




USA.gov is the U.S. government's official web portal to all federal, state and local government web resources and services.